GLOBAL-8 (46089 NORAD) Tracking and Keplerian Element Data

This shows tracking and keplerian element data for the satellite.

Feedback or suggestion? Click here.




ElementValue
Catalog46089
NameGLOBAL-8
Epoch Orbit2178
Epoch Day330.71118619
Epoch Year2020
RAAN116.7389
Inclination53.0058
Eccentricity0.0002431
Argument of Perigee117.2439
Mean Anonmoly242.8818
Mean Motion15.54397531
Decay Rate0.00010502
L11 46089U 20055BQ 20330.71118619 .00010502 00000-0 16425-3 0 9990
L22 46089 53.0058 116.7389 0002431 117.2439 242.8818 15.54397531 21786

Live tracking and technical data element details for GLOBAL-8 (NORAD 46089). GLOBAL-8 can be tracked NOW for your location showing map with azimuth and elevation plus other details from your city location.

Track the satellite on the map from your city or location and see movement details for azimuth, elevation, latitude, longitude, range, height, and movement on the map or in text.







IsCatalogInMostPopularTable: catalog: 46089, numindb: 18
Update: records affected: 1



GetName: 46089 GLOBAL-8

Hit Count: updated at: Thu, 26 Nov 2020 23:15:14 GMT